STARLINK-2732 (48646 NORAD) Tracking and Keplerian Element Data

This shows tracking and keplerian element data for the satellite.

Feedback or suggestion? Click here.




ElementValue
Catalog48646
NameSTARLINK-2732
Epoch Orbit1145
Epoch Day215.06343573
Epoch Year2021
RAAN101.7419
Inclination53.0548
Eccentricity0.0001988
Argument of Perigee84.0337
Mean Anonmoly276.0878
Mean Motion15.06385579
Decay Rate7.7E-06
L11 48646U 21044J 21215.06343573 .00000770 00000-0 70604-4 0 9996
L22 48646 53.0548 101.7419 0001988 84.0337 276.0878 15.06385579 11457

Live tracking and technical data element details for STARLINK-2732 (NORAD 48646). STARLINK-2732 can be tracked NOW for your location showing map with azimuth and elevation plus other details from your city location.

Track the satellite on the map from your city or location and see movement details for azimuth, elevation, latitude, longitude, range, height, and movement on the map or in text.







IsCatalogInMostPopularTable: catalog: 48646, numindb: 15
Update: records affected: 1



GetName: 48646 STARLINK-2732

Hit Count: updated at: Tue, 03 Aug 2021 19:56:18 GMT